| time (UTC) | temp C | wind direction | speed KPH | gust KPH | rain 1hr cm | rain 24hr cm | rain mn cm | humidity % | barometer mb |
| 20260505083055 | 8 | 0 | 0.0 | 0.0 | 0.00 | 0.00 | 0.00 | 83 | 1011.5 |
| 20260505081536 | 8 | 0 | 0.0 | 0.0 | 0.00 | 0.00 | 0.00 | 83 | 1011.4 |
| 20260505080036 | 8 | 0 | 0.0 | 0.0 | 0.00 | 0.00 | 0.00 | 82 | 1011.3 |
| 20260505074536 | 8 | 0 | 0.0 | 0.0 | 0.00 | 0.00 | 0.00 | 81 | 1011.1 |
| 20260505073043 | 8 | 0 | 0.0 | 0.0 | 0.00 | 0.00 | 0.00 | 81 | 1010.7 |
| 20260505071539 | 8 | 0 | 0.0 | 0.0 | 0.00 | 0.00 | 0.00 | 81 | 1010.7 |
| 20260505070049 | 8 | 0 | 0.0 | 0.0 | 0.00 | 0.00 | 0.00 | 80 | 1010.9 |
| 20260505064537 | 8 | 0 | 0.0 | 0.0 | 0.00 | 0.05 | 0.00 | 80 | 1010.9 |
| 20260505063044 | 8 | 0 | 0.0 | 0.0 | 0.00 | 0.05 | 0.00 | 79 | 1010.7 |
| 20260505061608 | 9 | 0 | 0.0 | 0.0 | 0.00 | 0.05 | 0.00 | 79 | 1010.7 |
| 20260505060038 | 9 | 0 | 0.0 | 0.0 | 0.00 | 0.05 | 0.00 | 79 | 1010.1 |
| 20260505054545 | 9 | 0 | 0.0 | 0.0 | 0.00 | 0.08 | 0.00 | 79 | 1010.6 |
| 20260505053037 | 8 | 0 | 0.0 | 0.0 | 0.00 | 0.08 | 0.00 | 79 | 1010.3 |
| 20260505051540 | 8 | 0 | 0.0 | 0.0 | 0.00 | 0.08 | 0.00 | 79 | 1010.3 |
| 20260505041534 | 8 | 0 | 0.0 | 0.0 | 0.00 | 0.13 | 0.00 | 78 | 1009.9 |
| 20260505040057 | 8 | 0 | 0.0 | 0.0 | 0.00 | 0.13 | 0.00 | 79 | 1009.8 |
| 20260505034541 | 8 | 0 | 0.0 | 0.0 | 0.00 | 0.18 | 0.00 | 78 | 1009.6 |
| 20260505033036 | 8 | 0 | 0.0 | 0.0 | 0.00 | 0.18 | 0.00 | 78 | 1009.5 |
| 20260505031546 | 8 | 0 | 0.0 | 0.0 | 0.00 | 0.18 | 0.00 | 77 | 1009.3 |
| 20260505030035 | 9 | 0 | 0.0 | 0.0 | 0.00 | 0.18 | 0.00 | 75 | 1009.1 |
| 20260505024537 | 10 | 0 | 0.0 | 0.0 | 0.00 | 0.20 | 0.18 | 75 | 1008.9 |
| 20260505023035 | 10 | 0 | 0.0 | 0.0 | 0.00 | 0.20 | 0.18 | 74 | 1008.8 |
| 20260505021537 | 10 | 0 | 0.0 | 0.0 | 0.00 | 0.20 | 0.18 | 73 | 1008.3 |
| 20260505020040 | 10 | 0 | 0.0 | 0.0 | 0.00 | 0.20 | 0.18 | 72 | 1008.1 |
| 20260505014544 | 10 | 0 | 0.0 | 0.0 | 0.00 | 0.38 | 0.18 | 71 | 1008.0 |
| 20260505013040 | 10 | 0 | 0.0 | 0.0 | 0.00 | 0.38 | 0.18 | 70 | 1007.7 |
| 20260505011538 | 10 | 0 | 0.0 | 0.0 | 0.00 | 0.38 | 0.18 | 70 | 1007.6 |
| 20260505010041 | 11 | 0 | 0.0 | 0.0 | 0.00 | 0.38 | 0.18 | 69 | 1007.3 |
| 20260505004535 | 11 | 0 | 0.0 | 0.0 | 0.00 | 0.61 | 0.18 | 68 | 1007.1 |
| 20260505003042 | 11 | 0 | 0.0 | 0.0 | 0.00 | 0.61 | 0.18 | 67 | 1006.8 |
| 20260505001539 | 11 | 0 | 0.0 | 0.0 | 0.00 | 0.61 | 0.18 | 66 | 1006.5 |
| 20260505000047 | 11 | 0 | 0.0 | 0.0 | 0.00 | 0.61 | 0.18 | 65 | 1006.3 |
| 20260504234536 | 11 | 0 | 0.0 | 0.0 | 0.00 | 0.71 | 0.18 | 64 | 1006.1 |
| 20260504233035 | 12 | 0 | 0.0 | 0.0 | 0.00 | 0.71 | 0.18 | 62 | 1006.0 |
| 20260504231541 | 12 | 0 | 0.0 | 0.0 | 0.00 | 0.71 | 0.18 | 59 | 1005.9 |
| 20260504230041 | 13 | 0 | 0.0 | 0.0 | 0.00 | 0.71 | 0.18 | 58 | 1005.7 |
| 20260504224537 | 13 | 0 | 0.0 | 0.0 | 0.00 | 0.89 | 0.18 | 56 | 1005.6 |
| 20260504223036 | 13 | 0 | 0.0 | 0.0 | 0.00 | 0.89 | 0.18 | 56 | 1005.5 |
| 20260504221546 | 14 | 0 | 0.0 | 0.0 | 0.00 | 0.89 | 0.18 | 53 | 1005.3 |
| 20260504220049 | 14 | 0 | 0.0 | 0.0 | 0.00 | 0.89 | 0.18 | 55 | 1005.2 |
| 20260504214537 | 14 | 0 | 0.0 | 0.0 | 0.00 | 0.99 | 0.18 | 53 | 1005.2 |
| 20260504213051 | 14 | 0 | 0.0 | 0.0 | 0.00 | 0.99 | 0.18 | 54 | 1005.4 |
| 20260504211540 | 15 | 0 | 0.0 | 0.0 | 0.00 | 0.99 | 0.18 | 54 | 1005.4 |
| 20260504210047 | 15 | 0 | 0.0 | 0.0 | 0.00 | 0.99 | 0.18 | 54 | 1005.0 |
| 20260504204544 | 15 | 0 | 0.0 | 0.0 | 0.00 | 1.40 | 0.18 | 57 | 1004.8 |
| 20260504203041 | 15 | 0 | 0.0 | 0.0 | 0.00 | 1.40 | 0.18 | 55 | 1004.7 |
| 20260504201535 | 16 | 0 | 0.0 | 0.0 | 0.00 | 1.40 | 0.18 | 51 | 1004.2 |
| 20260504200036 | 16 | 0 | 0.0 | 0.0 | 0.00 | 1.40 | 0.18 | 48 | 1003.9 |
| 20260504194542 | 17 | 0 | 0.0 | 0.0 | 0.00 | 2.36 | 0.18 | 45 | 1003.9 |
| 20260504193055 | 17 | 0 | 0.0 | 0.0 | 0.00 | 2.36 | 0.18 | 43 | 1003.9 |
| 20260504191542 | 17 | 0 | 0.0 | 0.0 | 0.00 | 2.36 | 0.18 | 44 | 1003.9 |
| 20260504190042 | 16 | 0 | 0.0 | 0.0 | 0.00 | 2.36 | 0.18 | 42 | 1003.9 |
| 20260504184535 | 16 | 0 | 0.0 | 0.0 | 0.00 | 2.79 | 0.18 | 40 | 1003.8 |
| 20260504183056 | 16 | 0 | 0.0 | 0.0 | 0.00 | 2.79 | 0.18 | 38 | 1003.8 |
| 20260504181544 | 16 | 0 | 0.0 | 0.0 | 0.00 | 2.79 | 0.18 | 38 | 1004.1 |
| 20260504180112 | 16 | 0 | 0.0 | 0.0 | 0.00 | 2.79 | 0.18 | 41 | 1004.1 |
| 20260504174537 | 16 | 0 | 0.0 | 0.0 | 0.00 | 3.17 | 0.18 | 42 | 1004.0 |
| 20260504173035 | 16 | 0 | 0.0 | 0.0 | 0.00 | 3.17 | 0.18 | 43 | 1003.9 |
| 20260504171548 | 15 | 0 | 0.0 | 0.0 | 0.00 | 3.17 | 0.18 | 39 | 1004.0 |